User: anonymous   Login
Location: Norwich
(52.6280°N, 1.3030°E)
Time: 09:32:05
(UTC+01:00)
Language:

APEX - Orbit

View from above orbital plane
View from above orbital plane
View from above satellite
View from above satellite

Ground track
Ground track

The orbit data is extracted from the following two-line orbital elements,

1 23191U 94046A   14295.75008001  .00024312  00000-0  98370-3 0   365
2 23191 069.9187 263.6701 0725279 129.6158 306.3459 14.07942565978453
Epoch (UTC): 22 October 2014 18:00:06
Eccentricity: 0.0725279
inclination: 69.9187°
perigee height: 341 km
apogee height: 1392 km
right ascension of ascending node: 263.6701°
argument of perigee: 129.6158°
revolutions per day: 14.07942565
mean anomaly at epoch: 306.3459°
orbit number at epoch: 97845

The dashed part of the orbit path shows where the satellite is in the earth's shadow,  

DLR